Regional Weather Roundup
Issued by NWS

Home | Current Version | Previous Version | Text Only | Print | Product List | Glossary Off
Versions: 1 2 3 4 5 6 7 8 9 10 11 12 13 14 15 16 17 18 19 20 21 22 23 24 25 26 27 28 29 30 31 32 33 34 35 36 37 38 39 40 41 42 43 44 45 46 47 48 49 50

000
ASUS43 KLOT 160908
RWRIL

ILLINOIS REGIONAL WEATHER ROUNDUP
NATIONAL WEATHER SERVICE CHICAGO/ROMEOVILLE IL
400 AM CDT WED AUG 16 2017

NOTE: "FAIR" INDICATES FEW OR NO CLOUDS BELOW 12,000 FEET WITH NO
SIGNIFICANT WEATHER AND/OR OBSTRUCTIONS TO VISIBILITY.

* THESE STATIONS ARE NOT UNDER NWS QUALITY CONTROL. THEY ALSO MAY NOT
  REPORT WEATHER SUCH AS PRECIPITATION OR FOG.

ILZ001-002-007-009-015-016-024-161000-
NORTHWEST ILLINOIS

CITY           SKY/WX    TMP DP  RH WIND       PRES   REMARKS
MOLINE         PTCLDY    69  65  86 E8        29.94S FOG
STERLING*      PTCLDY    63  62  97 NE5       29.98R
SAVANNA*       PTCLDY    63  60  91 CALM      29.96F
$$

ILZ003-004-008-010-011-017-018-161000-
NORTH CENTRAL ILLINOIS

CITY           SKY/WX    TMP DP  RH WIND       PRES   REMARKS
ROCKFORD       MOCLDY    65  60  84 E3        30.00S
FREEPORT*      PTCLDY    58  58  99 E6        30.01S FOG
ROCHELLE*      MOCLDY    64  62  93 E7        29.99S
DE KALB*       PTCLDY    62  61  96 E6        30.00S
PERU*          CLEAR     64  62  94 E7        29.98R
$$

ILZ005-006-012>014-019>023-161000-
NORTHEAST ILLINOIS

CITY           SKY/WX    TMP DP  RH WIND       PRES   REMARKS
CHICAGO-OHARE  PTCLDY    68  62  81 NE6       29.99R
CHICAGO-MIDWAY PTCLDY    70  64  81 E5        29.99R
AURORA         PTCLDY    63  61  93 CALM      29.99S
LANSING*       PTCLDY    63  60  91 CALM      29.99S
JOLIET*        CLEAR     68  66  92 NE5       29.99R
WAUKEGAN       CLEAR     61  61 100 CALM      30.00R
DUPAGE AIRPORT CLEAR     63  63 100 CALM      29.99R
KANKAKEE*      PTCLDY    64  63  94 E5        29.99S
WHEELING       CLEAR     63  63 100 CALM      30.01R
MORRIS*        PTCLDY    64  62  95 CALM      29.97S
ROMEOVILLE*    PTCLDY    66  62  88 E6        29.99R
NORTHERLY ISL    N/A     71  63  75 NE8         N/A
$$

LMZ740>746-161000-
SOUTHERN LAKE MICHIGAN

STATION/POSITION SKY/WX   TEMP    WIND        PRES    VSBY  WAVE
                          AIR SEA DIR/SP/G                  HT/PER
                          (F)     (DEG/KT/KT) (MB)    (MI)  (FT/S)
SOUTHERN BUOY              70 71   50/  6/  6 1015.7          2/ 5
WILMETTE HARBOR            71 72   60/  6/  8   N/A           2/ 5
HARRISON CRIB              72      80/  8/  8   N/A
CALUMET HARBOR             72      50/  5/  7 1014.9S
BURNS HARBOR               69      80/  5/  6 1015.9S
MICHIGAN CITY              67      60/  4/  5   N/A
MICHIGAN CITY 6N           71 74   80/  4/  6   N/A           2/ 5
ST. JOSEPH                 69 73   80/  4/  6 1015.4          2/ 5
$$

ILZ025>027-034>036-040-047-049-050-058-095>099-161000-
WEST-CENTRAL ILLINOIS

CITY           SKY/WX    TMP DP  RH WIND       PRES   REMARKS
QUINCY         CLEAR     73  69  87 S9        29.91R
GALESBURG*     PTCLDY    68  66  94 E6        29.96R
MACOMB*        CLEAR     67  66  99 CALM      29.95S
JACKSONVILLE*  CLEAR     69  67  94 SE5       29.93S
PITTSFIELD*    FOG       68  68  99 CALM      29.94R VSB 1/4
$$

ILZ028>032-037-038-041>044-048-051>054-059>061-161000-
CENTRAL ILLINOIS

CITY           SKY/WX    TMP DP  RH WIND       PRES   REMARKS
PONTIAC        CLEAR     64  63  97 CALM      29.98S FOG
BLOOMINGTON    CLEAR     66  65  96 E5        29.98R FOG
DECATUR        CLEAR     67  65  93 CALM      29.96R
PEORIA         PTCLDY    71  69  93 E8        29.95R
LACON*         MOCLDY    66  65  97 CALM      29.96R
LINCOLN*       CLEAR     67  67 100 CALM      29.95S
SPRINGFIELD    CLEAR     73  71  93 S5        29.94S
TAYLORVILLE    CLEAR     69  69 100 SE5       29.95F
$$

ILZ033-039-045-046-055>057-062-063-161000-
EAST-CENTRAL ILLINOIS

CITY           SKY/WX    TMP DP  RH WIND       PRES   REMARKS
CHAMPAIGN      PTCLDY    67  65  93 CALM      29.97S FOG
RANTOUL*       CLEAR     70  68  94 E3        29.97R
MATTOON        CLEAR     69  69 100 S5        29.96S
PARIS*         PTCLDY    66  66 100 SE3       29.99S FOG
$$

ILZ079-100>102-161000-
SOUTHWEST ILLINOIS

CITY           SKY/WX    TMP DP  RH WIND       PRES   REMARKS
ALTON          MOCLDY    68  68 100 CALM      29.94F FOG
BELLEVILLE     PTCLDY    72  70  96 CALM      29.94F
CAHOKIA*       MOCLDY    73  70  90 SE3       29.93S
SPARTA*        MOCLDY    73  72  98 CALM      29.96R
$$

ILZ064>066-069>071-074>076-080>082-084>086-088>090-092>094-161000-
SOUTH-CENTRAL ILLINOIS

CITY           SKY/WX    TMP DP  RH WIND       PRES   REMARKS
CARBONDALE     PTCLDY    70  70 100 CALM      29.95S FOG
CAIRO*         MOCLDY    69  69 100 CALM      29.95S FOG
EFFINGHAM*     PTCLDY    67  67 100 CALM      29.99R FOG
MARION         PTCLDY    72  70  94 S6        29.97R FOG
MT. VERNON     PTCLDY    66  66 100 CALM      29.96R
CENTRALIA*       N/A     69  69 100 CALM      29.95S FOG
SALEM*         PTCLDY    70  69  94 CALM      29.96S FOG
METROPOLIS*    PTCLDY    72  71  99 CALM      29.97R FOG
$$

ILZ067-068-072-073-078-083-087-091-161000-
SOUTHEAST ILLINOIS

CITY           SKY/WX    TMP DP  RH WIND       PRES   REMARKS
LAWRENCEVILLE  CLEAR     70  69  97 N5        29.98R FOG
FLORA*         FOG       68  67  96 CALM      29.97S VSB 1
FAIRFIELD*     PTCLDY    68  68 100 CALM      29.95S FOG
HARRISBURG*    MOCLDY    68  68 100 CALM      29.96R FOG
ROBINSON*      FOG       62  62 100 CALM      29.98R VSB 1/4
CARMI*         CLOUDY    66  66 100 CALM      29.96R FOG
$$

ABBREVIATIONS USED IN REMARKS
   TC - TEMPERATURE IN CELSIUS
  WCI - WIND CHILL INDEX
   HX - HEAT INDEX
  VSB - VISIBILITY
$$





USA.gov is the U.S. government's official web portal to all federal, state and local government web resources and services.